Погода в Мираках

Узбекистан     39°01′58″N   67°07′40″E
темп.,
°C
ветер,
м/с
пор.,
м/с
влажн.,
%
обл.,
%
осадки,
мм/ч
давл.,
гПа
погр.,
м
1 марта, пн
пн123:000вюв54372 0.0 102031
02:000вюв553359 0.0 102035
05:00+1юв443334 0.0 102027
08:00+1юв55360 0.0 102046
11:00+6ююз23530 0.0 1019438
14:00+7зюз23410 0.0 1018639
17:00+5юз11640 0.0 101823
20:00+1юв44440 0.0 102032
2 марта, вт
вт223:00+2вюв444031 0.0 102142
02:00+2юв443461 0.0 102135
05:00+2юв343581 0.0 102029
08:00+3юв3440100 0.0 102132
11:00+7зюз2239100 0.0 1021687
14:00+7зюз3447100 0.0 10201315
17:00+4зюз2363100 0.3 1020200
20:00+2вюв1183100 0.4 102346
3 марта, ср
ср323:00+1ююв1182100 0.6 102359
02:00+1юв1187100 0.3 102349
05:00+1юв1296100 1.2 102293
08:00+1юв1193100 0.9 1022103
11:00+3з228498 1.0 1021423
14:00+3з348399 0.6 1019533
17:00+2юз119599 1.4 1019157
20:00+2юв237749 0.0 101929
4 марта, чт
чт423:00+2юв346238 0.0 101938
02:00+2юв44570 0.0 101740
05:00+2вюв445513 0.0 101741
08:00+3юв3463100 0.1 101767
11:00+7зюз355388 0.1 10171079
14:00+5з447848 0.4 1017641
17:00+4ссз229264 2.1 1018209
20:00+3юв227663 1.1 101924
5 марта, пт
пт523:00+2ююв227680 2.3 102127
02:00+2ююв34620 0.1 102240
05:00−1зюз229850 2.5 1026138
08:00−1юв2394100 6.6 1027126
11:00+2зюз119795 7.4 1025150
14:00+5зюз238532 0.0 1022440
17:00+5зюз118653 0.0 1020132
20:00+3вюв655777 0.0 101861